Вернуться в каталог

STARLINK-32375

АктивенСвязьVLEO
NORAD 61070·PAYLOAD·🇺🇸 United States

Запущен Sep 13, 2024 с Vandenberg Space Force Base

Loading…

Ближайшие Пролёты (ближайшие 24 часа)

TLE

СвежийSource: CelesTrak SupGP

Эпоха: Sep 15, 2026, 02:56 UTC

1 61070C 24164W   26258.12270833  .00009285  00000+0  27428-3 0  2587
2 61070  53.1590 290.5419 0001213  90.4673 144.5373 15.34390752    12

Отслеживайте STARLINK-32375 в реальном времени с AllMySat

Download on the App Store